Weather History for Rexburg, ID

Change the Weather History Date:

Tuesday, November 20, 2012

  Actual Average Record
Temperature  
Mean Temperature 44 °F 28 °F  
Max Temperature 48 °F 38 °F 55 °F (2008)
Min Temperature 40 °F 19 °F 0 °F (1977)
Degree Days  
Heating Degree Days 21 37  
Month to date heating degree days 558 633  
Since 1 July heating degree days 1372 1620  
Cooling Degree Days 0 0  
Month to date cooling degree days 0 0  
Year to date cooling degree days 419 208  
Moisture  
Dew Point 37 °F    
Average Humidity 78    
Maximum Humidity 96    
Minimum Humidity 60    
Precipitation  
Precipitation 0.04 in 0.04 in 0.65 in (2010)
Month to date precipitation 0.65 0.75  
Year to date precipitation 8.69 11.74  
Sea Level Pressure  
Sea Level Pressure 30.09 in    
Wind  
Wind Speed 6 mph (South)    
Max Wind Speed 16 mph    
Max Gust Speed 23 mph    
Visibility 10 miles    
Events Rain    
T = Trace of Precipitation, MM = Missing Value Source: NWS Daily Summary

Daily Weather History Graph

Daily Weather History Graph

Search for Another Location

Airport:

Trip Planner

Search our weather history database for the weather conditions in past years. The results will help you decide how hot, cold, wet, or windy it might be!

Date:

Astronomy

Nov. 20, 2012 Rise Set
Actual Time 7:28 AM MST 4:56 PM MST
Civil Twilight 6:57 AM MST 5:28 PM MST
Nautical Twilight 6:22 AM MST 6:03 PM MST
Astronomical Twilight 5:47 AM MST 6:37 PM MST
Moon 12:57 PM MST No Moon Set
Length of Visible Light 10h 30m
Length of Day
9h 27m
First Quarter, 52% of the Moon is Illuminated
Nov 20
First Quarter
Nov 28
Full
Dec 6
Last Quarter
Dec 13
New
Dec 19
First Quarter

Hourly Weather History & Observations

Time (MST) Temp. Windchill Dew Point Humidity Pressure Visibility Wind Dir Wind Speed Gust Speed Precip Events Conditions
12:53 AM 46.0 °F 39.9 °F 34.0 °F 63% 30.15 in 10.0 mi South 13.8 mph 21.9 mph N/A   Overcast
1:53 AM 45.0 °F 38.9 °F 35.1 °F 68% 30.14 in 10.0 mi South 12.7 mph 19.6 mph N/A   Overcast
2:53 AM 46.0 °F 40.2 °F 35.1 °F 66% 30.14 in 10.0 mi SSW 12.7 mph - N/A   Overcast
3:53 AM 46.0 °F 39.9 °F 35.1 °F 66% 30.14 in 10.0 mi South 13.8 mph 20.7 mph N/A   Overcast
4:53 AM 46.9 °F - 35.1 °F 63% 30.13 in 10.0 mi South 12.7 mph 17.3 mph N/A   Overcast
5:53 AM 46.0 °F 40.6 °F 35.1 °F 66% 30.14 in 10.0 mi South 11.5 mph - N/A   Overcast
6:53 AM 46.0 °F 41.0 °F 35.1 °F 66% 30.14 in 10.0 mi South 10.4 mph 18.4 mph N/A   Overcast
7:53 AM 46.9 °F - 35.1 °F 63% 30.14 in 10.0 mi South 10.4 mph 18.4 mph N/A   Overcast
8:53 AM 46.0 °F 41.4 °F 35.1 °F 66% 30.16 in 10.0 mi SSW 9.2 mph - N/A   Overcast
9:53 AM 46.9 °F - 36.0 °F 66% 30.15 in 10.0 mi SSW 8.1 mph - N/A   Overcast
10:53 AM 46.9 °F - 37.9 °F 71% 30.16 in 10.0 mi South 6.9 mph - 0.00 in Rain Light Rain
11:53 AM 46.0 °F 41.9 °F 39.9 °F 79% 30.14 in 10.0 mi SW 8.1 mph - 0.01 in Rain Light Rain
12:53 PM 46.0 °F - 42.1 °F 86% 30.10 in 10.0 mi Calm Calm - 0.02 in Rain Light Rain
1:53 PM 46.0 °F - 42.1 °F 86% 30.08 in 10.0 mi Calm Calm - 0.01 in Rain Light Rain
2:53 PM 45.0 °F 43.5 °F 43.0 °F 93% 30.07 in 10.0 mi North 3.5 mph - 0.00 in Rain Light Rain
3:53 PM 45.0 °F 41.8 °F 43.0 °F 93% 30.05 in 10.0 mi ENE 5.8 mph - 0.00 in   Overcast
4:53 PM 45.0 °F - 42.1 °F 90% 30.04 in 10.0 mi Calm Calm - N/A   Overcast
5:53 PM 42.1 °F - 41.0 °F 96% 30.04 in 10.0 mi Calm Calm - N/A   Mostly Cloudy
6:53 PM 41.0 °F - 37.9 °F 89% 30.04 in 10.0 mi Calm Calm - N/A   Mostly Cloudy
7:53 PM 44.1 °F - 35.1 °F 71% 30.01 in 10.0 mi Calm Calm - N/A   Overcast
8:53 PM 44.1 °F - 36.0 °F 73% 30.00 in 10.0 mi Calm Calm - N/A   Overcast
9:53 PM 41.0 °F - 37.0 °F 86% 30.00 in 10.0 mi Calm Calm - N/A   Overcast
10:53 PM 45.0 °F 42.6 °F 33.1 °F 63% 29.97 in 10.0 mi SSW 4.6 mph - N/A   Overcast
11:53 PM 44.1 °F 42.5 °F 32.0 °F 63% 29.96 in 10.0 mi SSW 3.5 mph - N/A   Mostly Cloudy